SA27 CYXU-CYXU

Flight info

Callsign SA27
Flight time 0h 23m
Altitude 11500
Route APDAX
Aircraft L39/L-V/N

Departure

Time 2026-05-05 00:43
Airport London International Airport (CYXU)

Arrival

Time 2026-05-05 01:06
Airport London International Airport (CYXU)
Time Latitude Longitude Altitude Speed Heading
2026-05-05 00:36 43.03005 -81.15524 906 ft 0 kts 139°
2026-05-05 00:38 43.03006 -81.15524 906 ft 0 kts
2026-05-05 00:39 43.03030 -81.15517 906 ft 12 kts 24°
2026-05-05 00:39 43.03078 -81.15455 906 ft 11 kts 41°
2026-05-05 00:40 43.03134 -81.15380 906 ft 11 kts 41°
2026-05-05 00:40 43.03193 -81.15303 906 ft 12 kts 44°
2026-05-05 00:40 43.03245 -81.15218 906 ft 11 kts 54°
2026-05-05 00:40 43.03301 -81.15139 906 ft 12 kts 44°
2026-05-05 00:41 43.03325 -81.15107 906 ft 0 kts 44°
2026-05-05 00:41 43.03378 -81.15037 907 ft 15 kts 42°
2026-05-05 00:42 43.03370 -81.14972 907 ft 0 kts 139°
2026-05-05 00:42 43.03156 -81.14713 905 ft 87 kts 136°
2026-05-05 00:42 43.02736 -81.14200 941 ft 129 kts 142°
2026-05-05 00:42 43.01988 -81.13291 1457 ft 157 kts 146°
2026-05-05 00:43 43.01290 -81.12016 2082 ft 190 kts 124°
2026-05-05 00:43 43.01197 -81.10311 2497 ft 232 kts 86°
2026-05-05 00:43 43.01702 -81.08083 3008 ft 257 kts 77°
2026-05-05 00:43 43.02154 -81.05834 3485 ft 271 kts 81°
2026-05-05 00:44 43.02624 -81.03274 3997 ft 284 kts 80°
2026-05-05 00:44 43.03101 -81.00604 4523 ft 292 kts 80°
2026-05-05 00:44 43.03573 -80.97886 5028 ft 295 kts 80°
2026-05-05 00:44 43.04041 -80.95138 5483 ft 301 kts 79°
2026-05-05 00:45 43.04502 -80.92341 5500 ft 298 kts 80°
2026-05-05 00:45 43.04961 -80.89587 5499 ft 298 kts 80°
2026-05-05 00:45 43.05423 -80.86810 5501 ft 303 kts 80°
2026-05-05 00:45 43.05890 -80.83976 5507 ft 305 kts 80°
2026-05-05 00:46 43.06355 -80.81169 5506 ft 302 kts 80°
2026-05-05 00:46 43.06823 -80.78381 5510 ft 300 kts 80°
2026-05-05 00:46 43.07289 -80.75610 5506 ft 298 kts 80°
2026-05-05 00:46 43.07755 -80.72854 5517 ft 297 kts 80°
2026-05-05 00:47 43.08221 -80.70110 5518 ft 296 kts 80°
2026-05-05 00:47 43.08687 -80.67373 5514 ft 295 kts 79°
2026-05-05 00:47 43.09151 -80.64646 5518 ft 294 kts 79°
2026-05-05 00:47 43.09612 -80.61928 5519 ft 293 kts 79°
2026-05-05 00:48 43.10069 -80.59207 5520 ft 293 kts 80°
2026-05-05 00:48 43.10300 -80.56462 5517 ft 288 kts 95°
2026-05-05 00:48 43.10195 -80.53735 5522 ft 287 kts 99°
2026-05-05 00:48 43.10040 -80.51018 5519 ft 286 kts 101°
2026-05-05 00:49 43.09493 -80.48487 5520 ft 271 kts 128°
2026-05-05 00:49 43.08179 -80.46844 5613 ft 243 kts 164°
2026-05-05 00:49 43.06585 -80.46556 5748 ft 239 kts 197°
2026-05-05 00:49 43.05158 -80.47703 6524 ft 240 kts 226°
2026-05-05 00:50 43.03996 -80.49360 7636 ft 243 kts 229°
2026-05-05 00:50 43.02823 -80.51050 8748 ft 248 kts 230°
2026-05-05 00:50 43.01610 -80.52768 9861 ft 254 kts 230°
2026-05-05 00:50 43.00359 -80.54511 10953 ft 259 kts 230°
2026-05-05 00:51 42.99063 -80.56311 11524 ft 274 kts 230°
2026-05-05 00:51 42.97907 -80.58424 11525 ft 281 kts 247°
2026-05-05 00:51 42.97626 -80.60994 11522 ft 275 kts 275°
2026-05-05 00:51 42.98361 -80.63391 11522 ft 288 kts 302°
2026-05-05 00:52 43.00131 -80.65337 11534 ft 369 kts 327°
2026-05-05 00:52 43.02758 -80.66553 11543 ft 424 kts 341°
2026-05-05 00:52 43.05750 -80.67321 11535 ft 448 kts 346°
2026-05-05 00:52 43.08884 -80.67927 11536 ft 459 kts 348°
2026-05-05 00:53 43.12070 -80.68462 11532 ft 463 kts 348°
2026-05-05 00:53 43.15200 -80.68945 11527 ft 431 kts 349°
2026-05-05 00:53 43.18027 -80.69408 11517 ft 399 kts 344°
2026-05-05 00:53 43.20511 -80.70702 11502 ft 371 kts 323°
2026-05-05 00:54 43.22309 -80.73059 11507 ft 351 kts 301°
2026-05-05 00:54 43.23286 -80.76067 11227 ft 345 kts 282°
2026-05-05 00:54 43.23730 -80.79143 10964 ft 310 kts 277°
2026-05-05 00:54 43.24003 -80.81947 10562 ft 284 kts 275°
2026-05-05 00:55 43.24214 -80.84492 10237 ft 254 kts 274°
2026-05-05 00:55 43.24405 -80.86872 9383 ft 248 kts 274°
2026-05-05 00:55 43.24614 -80.89221 8273 ft 249 kts 275°
2026-05-05 00:55 43.24878 -80.91563 7240 ft 248 kts 275°
2026-05-05 00:56 43.25167 -80.93878 6526 ft 239 kts 275°
2026-05-05 00:56 43.25455 -80.95964 6497 ft 208 kts 276°
2026-05-05 00:56 43.25729 -80.97791 6495 ft 184 kts 276°
2026-05-05 00:56 43.25981 -80.99413 6495 ft 164 kts 276°
2026-05-05 00:57 43.26215 -81.00870 6492 ft 148 kts 276°
2026-05-05 00:57 43.26435 -81.02184 6487 ft 134 kts 275°
2026-05-05 00:57 43.26623 -81.03369 6483 ft 119 kts 268°
2026-05-05 00:57 43.26338 -81.04255 6503 ft 116 kts 214°
2026-05-05 00:58 43.25329 -81.04481 6527 ft 177 kts 191°
2026-05-05 00:58 43.24025 -81.04946 6535 ft 212 kts 216°
2026-05-05 00:58 43.22880 -81.06450 6532 ft 245 kts 230°
2026-05-05 00:58 43.21693 -81.08165 6598 ft 245 kts 227°
2026-05-05 00:59 43.20505 -81.09749 6600 ft 225 kts 226°
2026-05-05 00:59 43.19435 -81.11149 6538 ft 202 kts 226°
2026-05-05 00:59 43.18425 -81.12467 6120 ft 201 kts 226°
2026-05-05 00:59 43.17419 -81.13800 5675 ft 200 kts 226°
2026-05-05 01:00 43.16427 -81.15131 5285 ft 197 kts 226°
2026-05-05 01:00 43.15479 -81.16405 4825 ft 191 kts 226°
2026-05-05 01:00 43.14505 -81.17643 4237 ft 190 kts 221°
2026-05-05 01:00 43.13457 -81.18706 3722 ft 185 kts 218°
2026-05-05 01:01 43.12429 -81.19728 3134 ft 182 kts 218°
2026-05-05 01:01 43.11417 -81.20737 2582 ft 177 kts 218°
2026-05-05 01:01 43.10369 -81.21441 2413 ft 162 kts 193°
2026-05-05 01:01 43.09294 -81.21128 2286 ft 159 kts 169°
2026-05-05 01:02 43.08326 -81.20487 2176 ft 151 kts 165°
2026-05-05 01:02 43.07408 -81.19588 2144 ft 172 kts 155°
2026-05-05 01:02 43.06439 -81.18536 2017 ft 185 kts 153°
2026-05-05 01:02 43.05391 -81.17423 1910 ft 196 kts 153°
2026-05-05 01:03 43.04358 -81.16252 1952 ft 189 kts 150°
2026-05-05 01:03 43.03611 -81.14793 2132 ft 193 kts 116°
2026-05-05 01:03 43.03777 -81.13038 2077 ft 193 kts 64°
2026-05-05 01:03 43.04819 -81.12040 1995 ft 177 kts 358°
2026-05-05 01:04 43.05860 -81.12443 1984 ft 148 kts 308°
2026-05-05 01:04 43.07026 -81.14363 2206 ft 117 kts 261°
2026-05-05 01:04 43.06861 -81.15393 2149 ft 114 kts 237°
2026-05-05 01:05 43.06324 -81.16255 1933 ft 124 kts 217°
2026-05-05 01:05 43.05491 -81.16646 1582 ft 135 kts 185°
2026-05-05 01:05 43.04640 -81.16387 1154 ft 114 kts 156°
2026-05-05 01:05 43.04036 -81.15750 913 ft 98 kts 144°
2026-05-05 01:06 43.03641 -81.15296 906 ft 58 kts 137°
2026-05-05 01:06 43.03360 -81.14957 906 ft 51 kts 140°
2026-05-05 01:06 43.03109 -81.14657 904 ft 44 kts 141°
2026-05-05 01:06 43.02943 -81.14577 905 ft 21 kts 213°
2026-05-05 01:07 43.02901 -81.14637 906 ft 13 kts 227°
2026-05-05 01:07 43.02951 -81.14789 906 ft 22 kts 320°
2026-05-05 01:07 43.03068 -81.14928 906 ft 22 kts 318°
2026-05-05 01:07 43.03185 -81.15067 906 ft 22 kts 318°
2026-05-05 01:08 43.03253 -81.15148 906 ft 17 kts 319°
2026-05-05 01:08 43.03225 -81.15252 906 ft 12 kts 238°
2026-05-05 01:08 43.03173 -81.15330 906 ft 10 kts 224°
2026-05-05 01:08 43.03123 -81.15397 906 ft 9 kts 225°
2026-05-05 01:09 43.03076 -81.15461 906 ft 11 kts 225°
2026-05-05 01:09 43.03015 -81.15533 906 ft 11 kts 180°
2026-05-05 01:09 43.02999 -81.15502 906 ft 8 kts 323°
2026-05-05 01:09 43.03013 -81.15518 906 ft 0 kts 318°